Regional Weather Roundup
Issued by NWS

Home | Current Version | Previous Version | Graphics & Text | Print | Product List | Glossary Off
Versions: 1 2 3 4 5 6 7 8 9 10 11 12 13 14 15 16 17 18 19 20 21 22 23 24 25 26 27 28 29 30 31 32 33 34 35 36 37 38 39 40 41 42 43 44 45 46 47 48 49 50

000
ASUS43 KMPX 271501
RWRMN
WEATHER ROUNDUP FOR MINNESOTA
NATIONAL WEATHER SERVICE TWIN CITIES/CHANHASSEN MN
1000 AM CDT WED MAY 27 2015


NOTE: "FAIR" INDICATES FEW OR NO CLOUDS BELOW 12,000 FEET WITH NO
SIGNIFICANT WEATHER AND/OR OBSTRUCTIONS TO VISIBILITY. N/A MEANS
CURRENT SKY AND/OR WEATHER CONDITIONS ARE NOT AVAILABLE.

MNZ060>063-068>070-271600-
   Twin Cities Metro

CITY           SKY/WX    TMP DP  RH WIND       PRES   REMARKS
TWIN CITIES    MOSUNNY   68  57  68 SW8       29.92S
ST PAUL        MOSUNNY   68  58  70 W6        29.92F
CRYSTAL        MOSUNNY   69  57  65 SW9       29.90S
LAKEVILLE      MOSUNNY   66  57  72 SW3       29.93F
EDEN PRAIRIE   MOSUNNY   66  58  75 S7        29.92S
SOUTH ST PAUL  MOSUNNY   67  57  70 SW8       29.92F
LAKE ELMO      FAIR      68  59  73 SW7       29.93F
$$
MNZ001>005-007-008-013>017-022>024-027-028-271600-
   Northwest Minnesota

CITY           SKY/WX    TMP DP  RH WIND       PRES   REMARKS
BEMIDJI        SUNNY     66  50  56 NW7       29.91R
HALLOCK        MOSUNNY   59  46  63 N14       29.95R
ROSEAU         MOSUNNY   63  50  63 NW6       29.92R
WARROAD        SUNNY     61  50  67 NW8       29.92R
THIEF RVR FALL MOSUNNY   63  48  59 NW9       29.93S
CROOKSTON      SUNNY     61  46  59 N13       29.94S
FOSSTON        MOSUNNY   64  48  55 CALM      29.93R
DETROIT LAKES  SUNNY     64  54  68 NW6       29.94R
MOORHEAD       SUNNY     64  54  68 N9        29.94R
PARK RAPIDS    SUNNY     71  49  45 N7        29.90R
MAHNOMEN       FAIR      63  52  68 N7        29.92R
$$
MNZ006-009>011-018-025>026-271600-
   North Central Minnesota

CITY           SKY/WX    TMP DP  RH WIND       PRES   REMARKS
BAUDETTE       SUNNY     60  49  66 NW12      29.89R
FLAG ISLAND    SUNNY     57  46  67 NW10      29.90R
INTL FALLS     SUNNY     69  52  54 NW6       29.85R
WASKISH        MOSUNNY   63  55  77 SW8       29.90R
BIG FORK       SUNNY     70  50  49 N6        29.87R
LONGVILLE      MOSUNNY   66  55  68 CALM      29.89R
GRAND RAPIDS   MOSUNNY   64  54  68 NW6       29.88R
CRANE LAKE     SUNNY     66  52  59 NW3       29.85R
COOK           SUNNY     66  54  63 CALM      29.85S
WALKER         CLOUDY    65  53  63 CALM      29.89S
$$
MNZ012-019>021-037-271600-
   Northeast Minnesota

CITY           SKY/WX    TMP DP  RH WIND       PRES   REMARKS
DULUTH         MOSUNNY   70  54  56 NW7       29.85R
HIBBING        SUNNY     70  53  54 NW3       29.85R
EVELETH        SUNNY     66  54  63 CALM      29.86S
DULUTH HARBOR  MOSUNNY   66  57  72 SW10      29.84R
TWO HARBORS    PTSUNNY   75  57  53 NW6       29.80S
SILVER BAY     MOSUNNY   75  54  46 CALM      29.79S
GRAND MARAIS     N/A     48  42  80 SW14      29.76R
G MARAIS ARPRT PTSUNNY   72  46  40 NW8       29.81S
$$
MNZ029>031-032-039>041-046>048-054>057-064-271600-
   West Central Minnesota

CITY           SKY/WX    TMP DP  RH WIND       PRES   REMARKS
FERGUS FALLS   SUNNY     64  54  68 NW10      29.94R
WHEATON        SUNNY     68  54  60 NW10      29.96R
MORRIS         SUNNY     70  54  56 NW12      29.93R
ALEXANDRIA     SUNNY     68  54  60 W7        29.93S
ELBOW LAKE     FAIR      65  55  71 W6        29.93S
WADENA         SUNNY     66  55  68 NW5       29.91R
GLENWOOD       SUNNY     66  55  68 W7        29.93S
APPLETON       SUNNY     72  54  53 NW9       29.93S
BENSON         SUNNY     70  52  52 N7        29.93S
ORTONVILLE     SUNNY     70  52  52 N10       29.94S
MADISON        SUNNY     70  54  56 NW9       29.95R
WILLMAR        FAIR      66  57  72 NW7       29.95R
$$
MNZ033>034-036-042>043-049>051-058-059-271600-
   Central Minnesota

CITY           SKY/WX    TMP DP  RH WIND       PRES   REMARKS
ST CLOUD       SUNNY     68  57  68 SW7       29.90S
SAUK CENTRE    FAIR      67  56  67 W5        29.92S
PAYNESVILLE    MOSUNNY   64  56  74 SW8       29.93R
AITKIN         MOSUNNY   66  55  68 W3        29.87R
PINE RIVER     MOSUNNY   66  55  68 NW7       29.93R
BRAINERD       MOSUNNY   67  56  67 NW5       29.90R
STAPLES        SUNNY     68  55  64 NW5       29.91R
LONG PRAIRIE   FAIR      66  54  63 SW6       29.92R
LITTLE FALLS   SUNNY     66  54  63 W6        29.90F
LITCHFIELD     SUNNY     68  59  73 W5        29.93S
BUFFALO        SUNNY     65  57  73 S7        29.93S
MAPLE LAKE     SUNNY     67  60  76 SW7       29.92S
$$
MNZ037-044-045-052-053-271600-
   East Central Minnesota

CITY           SKY/WX    TMP DP  RH WIND       PRES   REMARKS
PRINCETON      SUNNY     70  57  64 SW5       29.90S
MORA           SUNNY     64  55  72 W7        29.91R
CAMBRIDGE      SUNNY     70  55  60 SW8       29.88S
RUSH CITY      MOSUNNY   67  57  68 SW8       29.90S
MOOSE LAKE     MOSUNNY   68  61  77 S3        29.86R
HINCKLEY       FAIR      68  59  73 SW6       29.89R
CLOQUET        MOSUNNY   70  54  56 NW3       29.86S
MCGREGOR       MOSUNNY   64  55  72 W5        29.88S
$$
MNZ071>073-080-081-089-090-097-098-271600-
   Southwest Minnesota

CITY           SKY/WX    TMP DP  RH WIND       PRES   REMARKS
MONTEVIDEO     SUNNY     70  55  60 N9        29.95S
GRANITE FALLS  SUNNY     69  53  58 W9        29.96S
CANBY          SUNNY     72  52  49 N10       29.97R
MARSHALL       SUNNY     72  50  46 N13       29.96R
REDWOOD FALLS  SUNNY     69  55  60 W10       29.94S
OLIVIA         SUNNY     68  55  64 W7        29.93S
PIPESTONE      SUNNY     66  54  63 W9        29.99R
WINDOM         SUNNY     70  55  60 W7        29.98R
WORTHINGTON    SUNNY     70  54  56 W9        29.99R
JACKSON        SUNNY     70  55  60 W9        29.99R
TRACY          SUNNY     72  55  56 NW9       29.97S
SLAYTON        SUNNY     68  54  61 W10       30.00R
$$
MNZ065>067-074>077-082>085-091>093-271600-
   South Central Minnesota

CITY           SKY/WX    TMP DP  RH WIND       PRES   REMARKS
MANKATO        SUNNY     64  57  77 SW8       29.95F
NEW ULM        SUNNY     66  55  68 W8        29.95R
ST JAMES       SUNNY     70  57  64 W7        29.97R
FAIRMONT       SUNNY     68  54  60 W10       29.97S
GLENCOE        SUNNY     67  60  78 W6        29.93R
FARIBAULT      MOSUNNY   66  61  82 S7        29.95F
OWATONNA       MOSUNNY   68  57  68 SW8       29.96S
WASECA         SUNNY     64  57  77 SW9       29.97S
ALBERT LEA     SUNNY     68  57  68 SW6       29.97S
$$
MNZ078>079-086>088-094>096-271600-
   Southeast Minnesota

CITY           SKY/WX    TMP DP  RH WIND       PRES   REMARKS
ROCHESTER      MOSUNNY   66  58  75 W8        29.99R
RED WING       PTSUNNY   66  59  77 SW5       29.93F
STANTON        PTSUNNY   67  59  73 S5        29.93F
DODGE CENTER   MOSUNNY   66  57  72 W8        29.97S
WINONA         MOSUNNY   66  59  77 CALM      29.95S
AUSTIN         SUNNY     66  57  72 SW8       29.97S
PRESTON        SUNNY     65  57  75 W6        29.99R
$$
ABBREVIATIONS USED IN REMARKS
   TC - TEMPERATURES IN CELSIUS
  WCI - WIND CHILL INDEX
   HX - HEAT INDEX
  VSB - VISIBILITY
$$



USA.gov is the U.S. government's official web portal to all federal, state and local government web resources and services.